JUPITER 3 (ECHOSTAR 24)

Last updated on Wed Oct 29 2025 00:02:51 GMT+0000 (Coordinated Universal Time)

1 57479U 23108A 25300.16505863 -.00000139 00000+0 00000+0 0 9992 2 57479 0.0135 255.4684 0001334 322.0091 142.5489 1.00270844 8316
UTC large
Height (km)
Speed (km/s)
/
Latitude / Longitude
Inclination (degrees)
Orbital Period (minutes)
Azimuth
Elevation
Range (km)
Doppler Factor

Next 0 passes for location: London (51.5072 / 0.1276)

Sorry there are no passes over London.